Wind_Speed
45 43 42 42 44 46 45 43 40 37 34 30 26 25 24 24 24 23 22 23 24 26 28 31 32 33 37 40 39 40 38 36 42 68 66 70 56 49 47 47 49 52 55
47 45 44 44 45 46 46 43 39 36 32 27 26 25 24 23 22 22 23 23 26 28 29 31 33 36 38 38 39 40 39 37 37 46 61 61 62 50 47 49 51 52 56
48 48 48 47 47 47 46 42 39 35 31 27 26 24 23 21 21 22 24 25 26 28 30 32 35 36 38 38 38 39 39 35 37 40 51 50 57 53 53 52 56 53 48
46 49 49 49 47 44 43 40 37 33 30 28 26 23 22 20 22 22 24 26 27 30 32 33 35 34 36 36 35 38 41 42 42 44 46 47 46 46 45 45 51 44 45
45 47 49 49 46 40 41 40 37 33 30 28 25 22 20 21 21 22 24 25 28 32 33 34 33 32 32 31 34 37 39 43 43 44 47 45 44 43 42 42 44 46 54
44 47 47 47 44 40 41 41 38 34 31 28 24 22 20 20 19 22 25 27 30 32 33 32 32 34 35 30 32 34 37 42 46 46 48 48 48 48 47 46 45 42 48
43 44 47 46 43 39 42 41 38 34 30 25 23 20 20 18 19 23 25 28 30 30 31 31 32 34 36 39 38 39 42 42 42 47 53 51 52 49 49 49 46 45 50
41 43 44 43 41 40 44 43 38 33 27 23 21 21 18 17 20 23 26 27 28 29 29 30 33 36 36 36 41 45 46 45 45 47 51 54 52 52 54 56 54 53 54
40 42 43 41 40 42 46 43 37 32 26 22 25 20 18 16 20 23 23 25 26 27 29 30 29 38 33 34 40 46 51 50 48 44 46 49 51 51 49 49 55 52 54
38 40 41 42 41 45 47 42 36 31 25 29 21 20 17 16 19 20 20 20 24 26 30 33 36 29 32 37 43 46 51 47 47 48 51 54 46 48 49 45 49 53 48
37 39 41 41 42 46 46 41 36 30 30 23 24 18 16 15 16 17 15 15 20 26 32 36 36 31 37 38 34 40 39 40 45 46 45 39 42 46 50 48 52 55 54
36 38 41 43 47 50 46 40 35 31 25 25 21 17 14 12 13 13 12 12 16 24 30 35 34 35 35 34 32 32 35 36 40 37 38 37 35 40 46 49 49 51 55
39 40 44 45 51 51 45 40 33 26 27 25 20 16 11 11 10 9 9 10 16 21 27 27 32 35 35 36 34 30 35 29 34 36 38 39 37 40 37 40 48 47 51
41 41 43 49 55 51 45 38 31 30 29 23 19 14 11 9 6 7 13 16 20 24 26 30 29 31 32 34 37 36 39 34 33 37 38 41 41 38 40 44 45 41 43
42 41 44 54 54 50 43 36 33 31 26 22 17 14 10 6 3 6 9 14 18 18 23 26 30 33 36 39 38 38 40 41 36 40 40 41 41 36 39 37 36 36 43
44 45 49 58 58 50 43 36 32 27 24 21 17 12 7 4 2 2 5 9 13 15 22 27 30 34 36 38 40 42 41 45 40 44 43 42 41 38 42 43 36 37 34
48 49 54 60 54 45 42 39 36 28 25 21 17 12 8 4 3 2 6 8 12 15 22 26 30 34 36 38 40 42 43 47 42 46 47 45 38 44 39 39 37 35 39
49 50 59 63 55 48 42 38 33 32 30 23 18 13 10 5 4 2 5 7 9 15 22 27 30 32 36 39 41 43 46 47 46 52 48 43 45 41 40 38 36 35 36
52 55 62 60 52 46 42 37 34 30 26 22 19 16 12 9 5 2 4 8 13 18 22 25 28 30 34 38 42 44 45 43 48 52 49 48 45 41 40 38 37 36 36
52 54 64 61 55 48 40 38 34 30 27 23 20 16 13 10 6 2 2 8 12 16 20 24 27 30 33 38 41 45 47 44 49 51 55 51 47 42 40 40 38 38 37
49 55 59 53 49 44 41 37 33 30 27 23 20 17 14 11 7 2 4 9 14 17 20 23 26 29 32 36 41 44 47 47 47 53 60 56 50 45 42 39 38 38 37
49 56 53 49 43 41 38 35 32 29 27 24 21 18 15 11 6 1 4 9 13 16 19 22 25 27 31 35 40 44 47 49 47 58 64 59 51 48 46 44 41 34 32
53 52 47 42 39 37 36 33 31 28 26 23 19 16 13 9 4 2 6 9 13 14 16 20 25 27 28 32 35 39 44 48 45 62 63 61 55 53 49 47 41 34 30
51 46 43 40 36 34 33 31 29 26 22 20 17 15 10 6 2 3 7 10 12 14 16 19 23 26 29 29 33 36 39 46 42 59 59 60 57 56 51 49 44 36 25
46 43 39 36 34 32 31 28 26 23 21 19 16 12 8 5 1 3 7 10 13 15 17 19 22 25 29 26 30 35 37 45 46 56 60 60 60 57 53 51 49 38 27
39 35 33 32 32 31 28 26 22 21 19 17 13 9 6 3 2 4 7 11 14 16 18 19 21 23 26 26 28 33 39 42 44 54 58 59 60 60 59 57 54 48 38
Wind_Direction
231 233 236 237 235 235 234 232 232 231 233 237 244 253 263 272 280 287 291 291 293 295 296 296 297 297 293 288 287 284 276 263 264 282 283 289 289 288 287 283 281 280 280
234 234 235 237 237 233 231 229 228 228 230 237 246 254 265 274 281 286 289 292 293 296 297 299 301 298 294 293 293 292 288 277 266 271 285 289 289 292 290 286 282 278 277
236 235 234 235 236 233 229 225 224 225 229 235 245 255 264 272 280 286 291 292 294 297 300 301 301 300 300 302 299 295 290 284 276 271 277 284 289 289 289 286 288 290 291
239 236 235 235 235 232 226 222 221 223 228 236 246 254 261 273 281 287 289 294 298 301 301 304 305 306 306 304 300 299 296 290 282 276 275 279 282 288 287 286 288 293 297
240 238 236 235 235 230 223 219 219 222 229 236 243 251 262 274 283 287 290 294 298 300 305 308 308 311 313 293 290 290 290 285 281 277 274 274 275 280 278 283 283 287 292
242 238 236 235 233 227 221 216 216 220 227 235 242 250 263 275 284 289 292 298 301 304 309 311 311 316 320 299 293 288 285 285 285 281 279 274 272 270 274 276 280 282 288
239 236 235 235 231 226 217 213 215 219 226 233 241 252 264 275 284 288 293 298 300 307 311 315 321 318 315 309 302 295 290 285 280 281 279 277 276 275 276 276 275 277 280
237 235 233 232 228 221 211 209 212 218 225 233 244 253 265 276 283 288 297 299 304 310 319 325 323 318 312 306 303 299 295 293 289 285 278 278 274 274 268 271 275 278 278
236 235 232 228 223 215 208 207 210 217 223 238 243 256 264 275 282 291 296 299 308 319 325 324 320 315 314 310 306 302 301 295 294 287 280 275 271 269 267 272 270 271 269
237 234 228 223 219 210 205 206 211 215 224 236 245 250 261 271 285 290 295 306 314 322 325 319 321 314 315 315 307 302 301 301 301 300 295 281 274 265 262 263 268 269 274
233 229 224 220 213 205 203 206 210 217 226 232 240 245 256 272 281 288 301 307 319 323 311 317 326 325 320 319 313 305 301 304 302 297 297 292 276 276 269 273 265 264 264
233 229 222 214 205 200 202 207 209 214 224 235 235 240 252 271 286 293 304 309 318 310 315 318 330 322 322 323 321 322 316 302 304 311 304 290 288 281 272 270 273 269 269
232 227 219 211 201 199 202 203 204 213 227 229 231 234 245 259 271 289 328 325 323 318 314 324 322 329 332 337 339 329 329 325 325 319 311 308 298 286 283 276 269 266 272
234 225 216 206 198 197 199 201 206 215 224 228 231 231 238 254 273 324 353 343 336 326 330 329 332 336 343 345 348 353 342 336 325 322 315 311 309 297 294 278 273 272 266
235 225 213 203 199 194 196 203 209 216 218 221 221 228 230 239 294 7 338 337 329 332 323 336 344 351 351 351 352 353 347 342 329 328 321 316 315 306 301 291 277 279 259
232 222 210 201 197 194 196 198 205 207 211 207 211 216 216 225 84 5 354 340 337 339 348 353 359 359 356 355 353 350 348 341 337 329 324 318 314 307 304 299 285 269 278
230 220 206 198 196 195 193 197 196 197 199 199 196 194 195 179 122 42 16 1 349 356 1 5 5 3 359 359 357 354 342 344 337 329 323 320 314 309 304 300 292 278 272
224 216 206 195 193 193 197 197 201 200 193 185 183 180 178 165 144 70 18 1 354 9 10 9 5 1 0 0 360 356 351 347 337 332 328 324 318 313 307 300 295 287 275
218 211 198 193 193 192 194 198 196 190 188 181 177 177 173 163 150 101 355 347 3 7 9 9 3 359 0 1 1 359 353 345 336 335 332 327 323 318 309 304 299 290 281
211 207 196 189 187 189 190 192 190 185 184 179 176 173 169 164 154 162 334 357 3 4 4 4 1 359 358 358 359 359 356 348 336 338 335 331 327 322 314 309 302 294 284
194 193 191 186 186 182 184 186 187 183 178 177 174 170 168 167 158 141 9 2 3 360 1 359 359 359 359 358 359 357 358 348 338 340 338 335 332 326 323 315 306 298 287
190 188 185 182 179 178 179 181 181 179 178 176 171 168 167 163 144 129 13 7 0 355 355 355 356 358 0 1 360 359 358 353 340 342 343 342 336 334 331 325 319 309 293
187 182 178 173 175 179 178 176 178 179 178 173 168 172 172 151 140 40 358 358 351 347 352 354 355 355 359 2 2 3 359 359 350 344 350 350 343 340 338 333 330 321 301
179 174 171 171 175 178 176 174 176 177 175 172 170 178 164 144 133 359 343 346 336 340 348 351 353 357 359 360 2 5 6 9 353 348 358 358 352 350 345 343 341 334 314
170 167 168 172 173 174 173 173 175 173 172 175 178 173 158 157 167 322 332 330 330 336 346 347 350 354 358 1 2 4 9 12 350 355 0 4 4 1 353 352 355 355 352
160 164 168 169 171 173 172 174 172 174 177 178 175 167 166 179 265 303 315 321 324 334 342 346 346 351 356 359 4 4 12 6 351 356 3 4 8 10 5 3 7 8 9
Height
1400 1403 1406 1409 1413 1418 1423 1427 1431 1436 1439 1443 1446 1448 1448 1448 1447 1444 1443 1443 1443 1441 1440 1437 1433 1430 1426 1424 1419 1417 1415 1416 1408 1376 1377 1369 1370 1370 1367 1364 1360 1356 1351
1391 1394 1397 1400 1403 1408 1413 1419 1425 1429 1433 1437 1440 1441 1442 1442 1440 1439 1437 1435 1434 1432 1430 1427 1424 1421 1416 1412 1409 1403 1400 1399 1396 1386 1366 1360 1354 1355 1354 1349 1345 1341 1337
1382 1384 1385 1389 1393 1398 1404 1411 1416 1421 1426 1428 1432 1434 1435 1434 1433 1432 1430 1428 1427 1424 1420 1417 1414 1410 1406 1400 1397 1391 1388 1386 1383 1378 1362 1358 1347 1345 1341 1338 1332 1327 1323
1371 1374 1376 1378 1384 1391 1399 1406 1411 1416 1420 1422 1426 1427 1426 1427 1426 1424 1422 1421 1419 1415 1411 1408 1404 1399 1396 1391 1386 1381 1378 1373 1370 1364 1357 1349 1345 1339 1335 1330 1319 1319 1310
1362 1364 1368 1372 1377 1385 1392 1398 1404 1409 1414 1416 1417 1419 1419 1419 1419 1417 1415 1413 1411 1407 1404 1399 1396 1391 1388 1386 1381 1375 1371 1366 1361 1354 1345 1340 1335 1333 1328 1324 1315 1311 1300
1351 1355 1359 1364 1370 1376 1382 1388 1394 1399 1403 1408 1409 1412 1411 1412 1411 1410 1408 1404 1403 1400 1395 1391 1388 1383 1378 1376 1372 1368 1366 1359 1351 1345 1336 1329 1323 1322 1318 1315 1309 1303 1287
1341 1343 1347 1354 1361 1368 1374 1381 1387 1392 1396 1400 1402 1404 1405 1404 1404 1403 1401 1398 1396 1392 1389 1383 1377 1375 1371 1364 1358 1354 1351 1347 1343 1335 1324 1319 1313 1314 1311 1305 1300 1295 1283
1333 1334 1338 1345 1353 1357 1364 1371 1378 1383 1388 1392 1395 1396 1396 1397 1397 1396 1394 1391 1389 1385 1381 1375 1370 1366 1363 1358 1350 1341 1334 1328 1325 1319 1311 1303 1300 1298 1297 1292 1288 1283 1274
1323 1324 1328 1335 1343 1351 1358 1363 1370 1376 1380 1384 1386 1388 1389 1390 1389 1387 1385 1384 1380 1378 1375 1370 1365 1359 1354 1351 1342 1331 1321 1313 1309 1305 1299 1291 1286 1285 1285 1282 1274 1272 1259
1309 1313 1319 1325 1331 1339 1347 1357 1362 1367 1370 1377 1378 1378 1381 1381 1380 1379 1378 1375 1373 1371 1368 1364 1359 1353 1347 1342 1333 1322 1308 1300 1294 1287 1280 1271 1270 1268 1269 1267 1263 1258 1253
1303 1306 1311 1317 1324 1333 1342 1347 1354 1359 1365 1367 1369 1371 1372 1372 1373 1372 1370 1368 1367 1364 1360 1355 1349 1343 1339 1330 1323 1312 1302 1293 1284 1275 1268 1259 1255 1254 1252 1251 1250 1248 1240
1295 1298 1304 1309 1316 1323 1333 1340 1347 1353 1359 1363 1364 1364 1364 1364 1366 1365 1363 1362 1362 1358 1353 1346 1341 1336 1327 1319 1310 1302 1294 1285 1273 1264 1257 1251 1247 1243 1238 1236 1233 1229 1225
1285 1288 1294 1303 1307 1315 1324 1331 1339 1347 1353 1355 1357 1357 1358 1359 1359 1357 1356 1356 1353 1352 1347 1340 1334 1326 1318 1308 1300 1293 1285 1276 1265 1257 1249 1241 1237 1232 1228 1224 1219 1214 1209
1280 1281 1288 1296 1300 1306 1315 1324 1329 1337 1343 1349 1351 1352 1353 1353 1352 1351 1349 1349 1348 1344 1339 1334 1328 1321 1312 1303 1292 1285 1279 1270 1261 1252 1243 1234 1226 1220 1214 1211 1206 1203 1199
1274 1275 1281 1290 1298 1300 1307 1315 1323 1330 1334 1338 1341 1347 1346 1345 1345 1345 1346 1347 1344 1340 1334 1328 1320 1313 1303 1295 1287 1280 1273 1264 1255 1246 1237 1227 1218 1212 1203 1198 1193 1190 1186
1264 1267 1269 1280 1287 1289 1297 1309 1316 1321 1326 1329 1334 1339 1339 1340 1337 1339 1341 1340 1338 1335 1328 1322 1315 1308 1300 1293 1284 1276 1266 1258 1248 1240 1231 1222 1212 1204 1195 1185 1182 1179 1176
1250 1257 1259 1271 1285 1290 1292 1298 1307 1314 1319 1322 1326 1330 1333 1333 1333 1335 1334 1334 1332 1330 1323 1318 1311 1304 1298 1290 1281 1272 1262 1253 1244 1236 1225 1214 1206 1196 1186 1177 1171 1168 1164
1238 1240 1251 1258 1270 1277 1291 1294 1303 1304 1310 1313 1320 1322 1326 1327 1329 1329 1328 1329 1329 1324 1319 1311 1308 1304 1296 1286 1278 1269 1258 1247 1240 1230 1218 1209 1199 1188 1177 1168 1163 1159 1156
1229 1230 1231 1254 1263 1271 1281 1290 1296 1299 1307 1309 1313 1317 1319 1321 1323 1324 1324 1324 1321 1317 1313 1310 1308 1303 1294 1285 1275 1266 1256 1245 1238 1226 1215 1202 1190 1179 1168 1160 1153 1150 1146
1216 1223 1232 1237 1248 1261 1272 1284 1292 1294 1301 1305 1308 1311 1313 1316 1318 1320 1321 1320 1317 1313 1309 1306 1304 1299 1291 1283 1272 1263 1252 1242 1235 1224 1211 1196 1183 1172 1161 1151 1145 1139 1134
1210 1220 1230 1239 1247 1254 1266 1277 1287 1292 1295 1302 1305 1307 1308 1313 1313 1316 1316 1315 1311 1309 1307 1304 1300 1296 1289 1280 1271 1262 1251 1241 1233 1222 1207 1190 1176 1164 1154 1144 1135 1128 1123
1208 1219 1229 1237 1248 1257 1264 1274 1283 1289 1294 1298 1300 1303 1306 1308 1308 1313 1312 1311 1308 1306 1305 1301 1297 1292 1285 1278 1269 1261 1250 1239 1229 1220 1203 1186 1172 1159 1146 1135 1124 1117 1109
1210 1220 1230 1240 1250 1259 1265 1271 1281 1288 1292 1294 1295 1302 1305 1302 1305 1308 1308 1307 1306 1306 1302 1298 1294 1289 1283 1277 1270 1262 1252 1240 1231 1223 1203 1183 1168 1155 1142 1129 1117 1108 1101
1210 1222 1233 1243 1252 1261 1267 1272 1280 1286 1290 1291 1295 1302 1300 1298 1303 1304 1305 1304 1305 1303 1298 1294 1290 1285 1279 1274 1269 1262 1254 1242 1236 1223 1205 1186 1169 1153 1140 1126 1112 1102 1092
1215 1224 1236 1245 1252 1261 1268 1273 1280 1283 1286 1292 1296 1297 1295 1297 1300 1302 1302 1302 1302 1299 1294 1291 1287 1282 1277 1272 1268 1261 1252 1241 1237 1224 1206 1190 1173 1155 1141 1127 1111 1096 1085
1222 1232 1241 1247 1255 1263 1267 1274 1277 1283 1290 1293 1295 1294 1294 1295 1298 1299 1299 1299 1298 1295 1290 1287 1283 1279 1275 1270 1265 1259 1249 1243 1236 1224 1209 1194 1178 1160 1142 1127 1110 1094 1082